AAL1118 KLAX-KMCO

Flight info

Callsign AAL1118
Flight time N/A
Altitude 31000
Route DOTSS2 CNERY BLH SPTFR Q4 ELP JCT J86 LEV Y280 CHRGE PRICY4
Aircraft A321/M-SDE3FGHIRWY/LB1

Departure

Time 2026-04-21 05:20
Airport Los Angeles International Airport (KLAX)

Arrival

Time N/A
Airport Orlando International Airport (KMCO)
Time Latitude Longitude Altitude Speed Heading
2026-04-21 04:51 33.93963 -118.40930 96 ft 0 kts 289°
2026-04-21 05:06 33.93958 -118.40913 97 ft 3 kts 286°
2026-04-21 05:06 33.93952 -118.40886 98 ft 3 kts 283°
2026-04-21 05:06 33.93948 -118.40863 97 ft 3 kts 277°
2026-04-21 05:07 33.93947 -118.40843 98 ft 2 kts 261°
2026-04-21 05:07 33.93949 -118.40831 96 ft 1 kts 234°
2026-04-21 05:07 33.93954 -118.40823 96 ft 1 kts 204°
2026-04-21 05:07 33.93965 -118.40819 98 ft 2 kts 180°
2026-04-21 05:08 33.93981 -118.40820 96 ft 1 kts 171°
2026-04-21 05:08 33.93966 -118.40818 98 ft 2 kts 173°
2026-04-21 05:08 33.93957 -118.40816 98 ft 1 kts 173°
2026-04-21 05:08 33.93953 -118.40816 98 ft 0 kts 172°
2026-04-21 05:12 33.93943 -118.40814 97 ft 5 kts 172°
2026-04-21 05:12 33.93907 -118.40804 97 ft 5 kts 145°
2026-04-21 05:12 33.93876 -118.40766 98 ft 9 kts 131°
2026-04-21 05:13 33.93834 -118.40734 100 ft 5 kts 150°
2026-04-21 05:13 33.93811 -118.40697 103 ft 8 kts 111°
2026-04-21 05:13 33.93818 -118.40591 102 ft 17 kts 83°
2026-04-21 05:13 33.93832 -118.40447 103 ft 17 kts 83°
2026-04-21 05:14 33.93847 -118.40309 104 ft 17 kts 82°
2026-04-21 05:14 33.93861 -118.40172 104 ft 16 kts 83°
2026-04-21 05:14 33.93874 -118.40040 104 ft 16 kts 83°
2026-04-21 05:14 33.93888 -118.39907 104 ft 16 kts 84°
2026-04-21 05:15 33.93900 -118.39772 103 ft 16 kts 82°
2026-04-21 05:15 33.93914 -118.39643 103 ft 16 kts 83°
2026-04-21 05:15 33.93928 -118.39507 103 ft 16 kts 81°
2026-04-21 05:15 33.93944 -118.39370 101 ft 17 kts 83°
2026-04-21 05:16 33.93957 -118.39229 101 ft 17 kts 83°
2026-04-21 05:16 33.93971 -118.39091 101 ft 16 kts 83°
2026-04-21 05:16 33.93985 -118.38958 102 ft 16 kts 83°
2026-04-21 05:16 33.93998 -118.38825 101 ft 16 kts 83°
2026-04-21 05:17 33.94011 -118.38694 102 ft 15 kts 82°
2026-04-21 05:17 33.94025 -118.38570 103 ft 15 kts 83°
2026-04-21 05:17 33.94037 -118.38450 103 ft 14 kts 84°
2026-04-21 05:17 33.94045 -118.38375 103 ft 10 kts 83°
2026-04-21 05:18 33.94058 -118.38242 103 ft 18 kts 83°
2026-04-21 05:18 33.94073 -118.38099 103 ft 15 kts 82°
2026-04-21 05:18 33.94068 -118.38012 102 ft 7 kts 135°
2026-04-21 05:18 33.94044 -118.38001 106 ft 2 kts 168°
2026-04-21 05:19 33.93995 -118.38004 109 ft 8 kts 208°
2026-04-21 05:19 33.93985 -118.38034 109 ft 0 kts 260°
2026-04-21 05:19 33.93981 -118.38073 110 ft 25 kts 263°
2026-04-21 05:19 33.93929 -118.38573 110 ft 93 kts 263°
2026-04-21 05:20 33.93826 -118.39581 109 ft 148 kts 263°
2026-04-21 05:20 33.93680 -118.40990 157 ft 188 kts 263°
2026-04-21 05:20 33.93505 -118.42546 946 ft 183 kts 262°
2026-04-21 05:20 33.93333 -118.44038 1798 ft 178 kts 262°
2026-04-21 05:21 33.93117 -118.45476 2373 ft 175 kts 251°
2026-04-21 05:21 33.92578 -118.46836 2673 ft 183 kts 237°
2026-04-21 05:21 33.91810 -118.48055 3052 ft 188 kts 226°
2026-04-21 05:21 33.90714 -118.49009 3221 ft 204 kts 205°
2026-04-21 05:22 33.89366 -118.49743 3355 ft 221 kts 202°
2026-04-21 05:22 33.87884 -118.50482 3487 ft 240 kts 200°
2026-04-21 05:22 33.86201 -118.50897 3679 ft 256 kts 182°
2026-04-21 05:22 33.84400 -118.51027 4191 ft 261 kts 182°
2026-04-21 05:23 33.82983 -118.51125 4665 ft 263 kts 183°
2026-04-21 05:23 33.81179 -118.51253 5272 ft 264 kts 183°
2026-04-21 05:23 33.79337 -118.51385 5892 ft 265 kts 183°
2026-04-21 05:23 33.77490 -118.51520 6501 ft 267 kts 183°
2026-04-21 05:24 33.75632 -118.51656 7075 ft 268 kts 183°
2026-04-21 05:24 33.73763 -118.51791 7649 ft 270 kts 184°
2026-04-21 05:24 33.71891 -118.51701 8202 ft 272 kts 167°
2026-04-21 05:24 33.70164 -118.50759 8738 ft 277 kts 144°
2026-04-21 05:25 33.68876 -118.49027 9270 ft 284 kts 121°
2026-04-21 05:25 33.68135 -118.46806 9813 ft 289 kts 112°
2026-04-21 05:25 33.67468 -118.44515 10276 ft 294 kts 112°
2026-04-21 05:25 33.66767 -118.42126 10402 ft 312 kts 112°
2026-04-21 05:26 33.66032 -118.39642 10529 ft 328 kts 112°
2026-04-21 05:26 33.65245 -118.36997 10651 ft 345 kts 112°
2026-04-21 05:26 33.64578 -118.34164 10782 ft 363 kts 102°
2026-04-21 05:26 33.64446 -118.31087 11058 ft 375 kts 92°
2026-04-21 05:27 33.64469 -118.27943 11499 ft 379 kts 92°
2026-04-21 05:27 33.64480 -118.24766 11981 ft 382 kts 92°
2026-04-21 05:27 33.64484 -118.21566 12472 ft 385 kts 93°
2026-04-21 05:27 33.64483 -118.18345 12960 ft 388 kts 93°
2026-04-21 05:28 33.64477 -118.15140 13426 ft 391 kts 93°
2026-04-21 05:28 33.64470 -118.11864 13909 ft 394 kts 93°
2026-04-21 05:28 33.64463 -118.08567 14344 ft 397 kts 93°
2026-04-21 05:28 33.64455 -118.05243 14787 ft 399 kts 93°
2026-04-21 05:29 33.64449 -118.01899 15259 ft 402 kts 93°
2026-04-21 05:29 33.64445 -117.98531 15714 ft 405 kts 92°
2026-04-21 05:29 33.64441 -117.95149 16154 ft 408 kts 93°
2026-04-21 05:29 33.64437 -117.91729 16595 ft 410 kts 92°
2026-04-21 05:30 33.64434 -117.88365 17022 ft 413 kts 92°
2026-04-21 05:30 33.64427 -117.84883 17465 ft 416 kts 93°
2026-04-21 05:30 33.64389 -117.81407 17885 ft 417 kts 96°
2026-04-21 05:30 33.63990 -117.77958 18311 ft 417 kts 105°
2026-04-21 05:31 33.63206 -117.74606 18661 ft 418 kts 109°
2026-04-21 05:31 33.62373 -117.71255 19022 ft 420 kts 109°
2026-04-21 05:31 33.61538 -117.67882 19374 ft 423 kts 109°
2026-04-21 05:31 33.60705 -117.64497 19729 ft 425 kts 109°
2026-04-21 05:32 33.59870 -117.61091 20081 ft 427 kts 109°
2026-04-21 05:32 33.59233 -117.58497 20343 ft 428 kts 109°
2026-04-21 05:32 33.58390 -117.55070 20688 ft 430 kts 109°
2026-04-21 05:32 33.57536 -117.51626 21031 ft 432 kts 109°
2026-04-21 05:33 33.56672 -117.48163 21365 ft 434 kts 109°
2026-04-21 05:33 33.55805 -117.44693 21704 ft 435 kts 109°
2026-04-21 05:33 33.54935 -117.41209 22060 ft 437 kts 109°
2026-04-21 05:33 33.54065 -117.37715 22393 ft 438 kts 109°
2026-04-21 05:34 33.53194 -117.34208 22697 ft 440 kts 109°
2026-04-21 05:34 33.52317 -117.30687 23009 ft 442 kts 109°
2026-04-21 05:34 33.51448 -117.27201 23319 ft 444 kts 109°
2026-04-21 05:34 33.50702 -117.23601 23615 ft 448 kts 101°
2026-04-21 05:35 33.50431 -117.19873 23859 ft 452 kts 92°
2026-04-21 05:35 33.50394 -117.16095 24096 ft 454 kts 92°
2026-04-21 05:35 33.50350 -117.12307 24345 ft 456 kts 92°
2026-04-21 05:35 33.50301 -117.08497 24587 ft 458 kts 92°
2026-04-21 05:36 33.50246 -117.04672 24824 ft 460 kts 93°
2026-04-21 05:36 33.50186 -117.00830 25062 ft 462 kts 92°
2026-04-21 05:36 33.50128 -116.97027 25281 ft 464 kts 92°
2026-04-21 05:36 33.50069 -116.93151 25501 ft 466 kts 92°
2026-04-21 05:37 33.50011 -116.89258 25719 ft 468 kts 92°
2026-04-21 05:37 33.49952 -116.85353 25930 ft 470 kts 92°
2026-04-21 05:37 33.49890 -116.81428 26138 ft 472 kts 92°
2026-04-21 05:37 33.49826 -116.77487 26342 ft 474 kts 92°
2026-04-21 05:38 33.49763 -116.73530 26533 ft 476 kts 92°
2026-04-21 05:38 33.49698 -116.69611 26741 ft 478 kts 92°
2026-04-21 05:38 33.49630 -116.65625 26942 ft 480 kts 92°
2026-04-21 05:38 33.49560 -116.61620 27153 ft 482 kts 92°
2026-04-21 05:39 33.49487 -116.57604 27425 ft 482 kts 92°
2026-04-21 05:39 33.49414 -116.53592 27733 ft 481 kts 92°
2026-04-21 05:39 33.49341 -116.49585 28032 ft 481 kts 92°
2026-04-21 05:39 33.49265 -116.45576 28333 ft 481 kts 92°
2026-04-21 05:40 33.49191 -116.41569 28612 ft 481 kts 92°
2026-04-21 05:40 33.49126 -116.37561 28900 ft 482 kts 92°
2026-04-21 05:40 33.49069 -116.33549 29189 ft 482 kts 92°
2026-04-21 05:40 33.49017 -116.29596 29430 ft 482 kts 92°
2026-04-21 05:41 33.48961 -116.25575 29716 ft 482 kts 92°
2026-04-21 05:41 33.48905 -116.21567 29997 ft 482 kts 92°
2026-04-21 05:41 33.48845 -116.17554 30216 ft 482 kts 92°
2026-04-21 05:41 33.48779 -116.13546 30454 ft 481 kts 92°
2026-04-21 05:42 33.48710 -116.09541 30703 ft 480 kts 92°
2026-04-21 05:42 33.48754 -116.05545 30942 ft 480 kts 86°
2026-04-21 05:42 33.49267 -116.01593 31185 ft 481 kts 77°
2026-04-21 05:42 33.50235 -115.97822 31430 ft 480 kts 71°
2026-04-21 05:43 33.51350 -115.94050 31670 ft 480 kts 71°
2026-04-21 05:43 33.52458 -115.90292 31915 ft 479 kts 71°
2026-04-21 05:43 33.53565 -115.86528 32173 ft 478 kts 71°
2026-04-21 05:43 33.54662 -115.82780 32427 ft 476 kts 71°
2026-04-21 05:44 33.55752 -115.79032 32680 ft 475 kts 72°
2026-04-21 05:44 33.56835 -115.75293 32877 ft 475 kts 72°
2026-04-21 05:44 33.58988 -115.67860 32934 ft 475 kts 72°
2026-04-21 05:45 33.61118 -115.60374 32923 ft 474 kts 77°
2026-04-21 05:45 33.61669 -115.56501 32932 ft 470 kts 89°
2026-04-21 05:45 33.61650 -115.52588 32932 ft 469 kts 94°
2026-04-21 05:46 33.61464 -115.44761 32934 ft 469 kts 94°
2026-04-21 05:46 33.61275 -115.36986 32932 ft 469 kts 94°
2026-04-21 05:47 33.61077 -115.29162 32934 ft 469 kts 94°
2026-04-21 05:47 33.60873 -115.21338 32935 ft 469 kts 94°
2026-04-21 05:48 33.60663 -115.13510 32935 ft 469 kts 94°
2026-04-21 05:48 33.60447 -115.05744 32938 ft 469 kts 94°
2026-04-21 05:49 33.60230 -114.97926 32900 ft 469 kts 95°
2026-04-21 05:49 33.60009 -114.90114 32923 ft 469 kts 95°
2026-04-21 05:50 33.59783 -114.82299 32940 ft 469 kts 95°
2026-04-21 05:50 33.59313 -114.74577 32941 ft 465 kts 104°
2026-04-21 05:51 33.57914 -114.67025 32945 ft 464 kts 105°
2026-04-21 05:51 33.56473 -114.59482 32944 ft 464 kts 106°
2026-04-21 05:52 33.55034 -114.51941 32942 ft 464 kts 105°
2026-04-21 05:52 33.53621 -114.44450 32942 ft 464 kts 105°
2026-04-21 05:53 33.52188 -114.36915 32935 ft 464 kts 105°
2026-04-21 05:53 33.50745 -114.29386 32940 ft 464 kts 105°
2026-04-21 05:54 33.49298 -114.21854 32941 ft 464 kts 106°
2026-04-21 05:54 33.47858 -114.14366 32948 ft 464 kts 105°
2026-04-21 05:55 33.46404 -114.06831 32953 ft 464 kts 106°
2026-04-21 05:55 33.44938 -113.99304 32949 ft 464 kts 106°
2026-04-21 05:56 33.43482 -113.91824 32952 ft 464 kts 106°
2026-04-21 05:56 33.42012 -113.84291 32954 ft 465 kts 106°
2026-04-21 05:57 33.40531 -113.76765 32955 ft 465 kts 106°
2026-04-21 05:57 33.38955 -113.69273 32950 ft 464 kts 109°
2026-04-21 05:58 33.36970 -113.61951 32953 ft 462 kts 112°
2026-04-21 05:58 33.34847 -113.54743 32951 ft 463 kts 112°
2026-04-21 05:59 33.32762 -113.47460 32959 ft 463 kts 111°
2026-04-21 06:00 33.29739 -113.36491 32946 ft 463 kts 111°
2026-04-21 06:00 33.27723 -113.29170 32953 ft 464 kts 111°
2026-04-21 06:01 33.25703 -113.21908 32945 ft 464 kts 111°
2026-04-21 06:01 33.23655 -113.14606 32946 ft 464 kts 111°
2026-04-21 06:02 33.21609 -113.07307 32945 ft 463 kts 111°
2026-04-21 06:02 33.19576 -113.00052 32949 ft 464 kts 111°
2026-04-21 06:03 33.17514 -112.92750 32954 ft 464 kts 111°
2026-04-21 06:03 33.15447 -112.85455 32954 ft 464 kts 111°
2026-04-21 06:04 33.13381 -112.78151 32968 ft 465 kts 111°
2026-04-21 06:04 33.11321 -112.70899 32972 ft 465 kts 111°
2026-04-21 06:05 33.09239 -112.63599 32973 ft 465 kts 111°
2026-04-21 06:05 33.07152 -112.56300 32970 ft 465 kts 111°
2026-04-21 06:06 33.05068 -112.48991 32968 ft 466 kts 110°
2026-04-21 06:06 33.03055 -112.41652 32961 ft 466 kts 110°
2026-04-21 06:07 33.01079 -112.34343 32959 ft 467 kts 110°
2026-04-21 06:07 32.99064 -112.26988 32960 ft 467 kts 110°
2026-04-21 06:08 32.97034 -112.19642 32956 ft 467 kts 110°
2026-04-21 06:08 32.95004 -112.12295 32972 ft 468 kts 110°
2026-04-21 06:09 32.92973 -112.04987 32988 ft 468 kts 110°
2026-04-21 06:09 32.90929 -111.97627 33003 ft 468 kts 110°
2026-04-21 06:10 32.88875 -111.90267 33011 ft 469 kts 110°
2026-04-21 06:10 32.86818 -111.82905 33016 ft 469 kts 110°
2026-04-21 06:11 32.84769 -111.75591 33012 ft 470 kts 110°
2026-04-21 06:11 32.82702 -111.68220 33001 ft 470 kts 110°
2026-04-21 06:12 32.80627 -111.60846 32992 ft 471 kts 110°
2026-04-21 06:12 32.78542 -111.53470 32974 ft 471 kts 110°
2026-04-21 06:13 32.76465 -111.46142 32987 ft 472 kts 110°
2026-04-21 06:13 32.74369 -111.38756 33008 ft 472 kts 111°
2026-04-21 06:14 32.72259 -111.31367 33028 ft 473 kts 111°
2026-04-21 06:14 32.70164 -111.24019 33043 ft 473 kts 111°
2026-04-21 06:15 32.68054 -111.16613 33050 ft 474 kts 111°
2026-04-21 06:15 32.65931 -111.09205 33061 ft 474 kts 111°
2026-04-21 06:16 32.63797 -111.01797 33058 ft 475 kts 111°
2026-04-21 06:16 32.61663 -110.94400 33062 ft 475 kts 111°
2026-04-21 06:17 32.59532 -110.87031 33059 ft 476 kts 111°
2026-04-21 06:17 32.57388 -110.79614 33060 ft 476 kts 111°
2026-04-21 06:18 32.55237 -110.72185 33059 ft 476 kts 111°
2026-04-21 06:18 32.53075 -110.64756 33056 ft 477 kts 111°
2026-04-21 06:19 32.50920 -110.57369 33054 ft 478 kts 111°
2026-04-21 06:19 32.48743 -110.49933 33053 ft 478 kts 111°
2026-04-21 06:20 32.46554 -110.42493 33053 ft 479 kts 111°
2026-04-21 06:20 32.44364 -110.35035 33050 ft 480 kts 111°
2026-04-21 06:21 32.42186 -110.27621 33043 ft 480 kts 111°
2026-04-21 06:21 32.39982 -110.20151 33035 ft 481 kts 111°
2026-04-21 06:22 32.37767 -110.12677 33022 ft 482 kts 111°
2026-04-21 06:22 32.35545 -110.05201 33014 ft 482 kts 111°
2026-04-21 06:23 32.33328 -109.97767 33004 ft 483 kts 111°
2026-04-21 06:23 32.31091 -109.90280 32999 ft 483 kts 111°
2026-04-21 06:24 32.29163 -109.82668 32989 ft 485 kts 100°
2026-04-21 06:24 32.28219 -109.74761 32985 ft 486 kts 99°
2026-04-21 06:25 32.27264 -109.66840 32978 ft 487 kts 99°
2026-04-21 06:25 32.26309 -109.58961 32980 ft 488 kts 99°
2026-04-21 06:26 32.25339 -109.51021 32973 ft 488 kts 99°
2026-04-21 06:26 32.24363 -109.43073 32973 ft 489 kts 99°
2026-04-21 06:27 32.23382 -109.35115 32975 ft 490 kts 99°
2026-04-21 06:27 32.22409 -109.27194 32978 ft 491 kts 99°
2026-04-21 06:28 32.21416 -109.19212 32979 ft 492 kts 99°
2026-04-21 06:28 32.20404 -109.11219 32984 ft 493 kts 99°
2026-04-21 06:29 32.19395 -109.03216 33016 ft 493 kts 99°
2026-04-21 06:29 32.18392 -108.95260 33052 ft 494 kts 99°
2026-04-21 06:30 32.17371 -108.87239 33082 ft 494 kts 99°
2026-04-21 06:30 32.16349 -108.79216 33104 ft 495 kts 99°
2026-04-21 06:31 32.15318 -108.71178 33111 ft 496 kts 99°
2026-04-21 06:31 32.14286 -108.63184 33101 ft 496 kts 99°
2026-04-21 06:32 32.13237 -108.55132 33082 ft 497 kts 99°
2026-04-21 06:32 32.12180 -108.47067 33056 ft 498 kts 99°
2026-04-21 06:33 32.11120 -108.38992 33015 ft 499 kts 99°
2026-04-21 06:33 32.10060 -108.30901 33006 ft 500 kts 99°
2026-04-21 06:34 32.09007 -108.22857 33007 ft 500 kts 99°
2026-04-21 06:34 32.07930 -108.14742 33002 ft 501 kts 99°
2026-04-21 06:35 32.06839 -108.06627 33001 ft 502 kts 99°
2026-04-21 06:35 32.05731 -107.98497 33031 ft 502 kts 99°
2026-04-21 06:36 32.04636 -107.90416 33056 ft 503 kts 99°
2026-04-21 06:36 32.03535 -107.82266 33067 ft 504 kts 99°
2026-04-21 06:37 32.02424 -107.74107 33067 ft 505 kts 99°
2026-04-21 06:37 32.01303 -107.65939 33054 ft 505 kts 99°
2026-04-21 06:38 32.00186 -107.57822 33031 ft 506 kts 99°
2026-04-21 06:38 31.99060 -107.49645 32998 ft 506 kts 99°
2026-04-21 06:39 31.97923 -107.41450 32980 ft 507 kts 99°
2026-04-21 06:39 31.96775 -107.33252 32981 ft 508 kts 99°
2026-04-21 06:40 31.95625 -107.25088 32977 ft 509 kts 99°
2026-04-21 06:40 31.94462 -107.16858 32977 ft 510 kts 100°
2026-04-21 06:41 31.93288 -107.08620 32999 ft 511 kts 100°
2026-04-21 06:41 31.92315 -107.01759 33039 ft 512 kts 99°
2026-04-21 06:42 31.90942 -106.92137 33091 ft 513 kts 100°
2026-04-21 06:42 31.89747 -106.83850 33139 ft 514 kts 100°
2026-04-21 06:43 31.88751 -106.76949 33153 ft 515 kts 100°
2026-04-21 06:43 31.87541 -106.68639 33152 ft 516 kts 100°
2026-04-21 06:44 31.86331 -106.60317 33150 ft 517 kts 100°
2026-04-21 06:44 31.84916 -106.50628 33146 ft 518 kts 100°
2026-04-21 06:45 31.83680 -106.42275 33155 ft 519 kts 100°
2026-04-21 06:45 31.82649 -106.35326 33148 ft 520 kts 100°
2026-04-21 06:46 31.81396 -106.26950 33148 ft 520 kts 101°
2026-04-21 06:46 31.80071 -106.18586 33106 ft 521 kts 102°
2026-04-21 06:47 31.78701 -106.10281 33066 ft 521 kts 102°
2026-04-21 06:47 31.77320 -106.01902 33033 ft 522 kts 102°
2026-04-21 06:48 31.75950 -105.93516 33010 ft 523 kts 102°
2026-04-21 06:48 31.74579 -105.85116 33022 ft 524 kts 102°
2026-04-21 06:49 31.73200 -105.76771 33027 ft 525 kts 102°
2026-04-21 06:49 31.71802 -105.68354 33036 ft 525 kts 102°
2026-04-21 06:50 31.70167 -105.58558 33047 ft 526 kts 102°
2026-04-21 06:50 31.68986 -105.51480 33048 ft 527 kts 102°
2026-04-21 06:51 31.67576 -105.43088 33050 ft 528 kts 102°
2026-04-21 06:51 31.66154 -105.34625 33056 ft 529 kts 102°
2026-04-21 06:52 31.64721 -105.26141 33057 ft 530 kts 102°
2026-04-21 06:52 31.63276 -105.17653 33067 ft 531 kts 102°
2026-04-21 06:53 31.61836 -105.09211 33076 ft 531 kts 102°
2026-04-21 06:53 31.60378 -105.00709 33088 ft 532 kts 102°
2026-04-21 06:54 31.58908 -104.92203 33083 ft 532 kts 102°
2026-04-21 06:54 31.57433 -104.83686 33095 ft 533 kts 102°
2026-04-21 06:55 31.55963 -104.75223 33116 ft 533 kts 102°
2026-04-21 06:55 31.54479 -104.66701 33128 ft 534 kts 102°
2026-04-21 06:56 31.52994 -104.58175 33122 ft 534 kts 102°
2026-04-21 06:56 31.51503 -104.49647 33126 ft 534 kts 102°
2026-04-21 06:57 31.50006 -104.41179 33130 ft 535 kts 102°
2026-04-21 06:57 31.48484 -104.32649 33137 ft 535 kts 102°
2026-04-21 06:58 31.46972 -104.24109 33130 ft 536 kts 102°
2026-04-21 06:58 31.45452 -104.15565 33126 ft 536 kts 102°
2026-04-21 06:59 31.43921 -104.07078 33125 ft 537 kts 102°
2026-04-21 06:59 31.42380 -103.98523 33124 ft 537 kts 102°
2026-04-21 07:00 31.40841 -103.89955 33128 ft 538 kts 102°
2026-04-21 07:00 31.39284 -103.81390 33155 ft 538 kts 103°
2026-04-21 07:01 31.37732 -103.72876 33171 ft 539 kts 103°
2026-04-21 07:01 31.35369 -103.60024 33211 ft 539 kts 103°
2026-04-21 07:02 31.33787 -103.51444 33222 ft 539 kts 103°
2026-04-21 07:02 31.32216 -103.42922 33216 ft 540 kts 103°
2026-04-21 07:03 31.30627 -103.34344 33188 ft 540 kts 103°
2026-04-21 07:03 31.29027 -103.25775 33167 ft 540 kts 103°
2026-04-21 07:04 31.27423 -103.17199 33146 ft 540 kts 103°
2026-04-21 07:04 31.25828 -103.08694 33134 ft 540 kts 103°
2026-04-21 07:05 31.24215 -103.00128 33141 ft 540 kts 103°
2026-04-21 07:05 31.22597 -102.91568 33150 ft 540 kts 103°
2026-04-21 07:06 31.20976 -102.83009 33156 ft 539 kts 103°
2026-04-21 07:06 31.19358 -102.74519 33160 ft 539 kts 103°
2026-04-21 07:07 31.17736 -102.66040 33164 ft 539 kts 103°
2026-04-21 07:07 31.16097 -102.57506 33171 ft 539 kts 104°
2026-04-21 07:08 31.14447 -102.48980 33175 ft 538 kts 104°
2026-04-21 07:08 31.12813 -102.40518 33180 ft 538 kts 104°
2026-04-21 07:09 31.11171 -102.32003 33185 ft 538 kts 104°
2026-04-21 07:09 31.09512 -102.23493 33190 ft 538 kts 104°
2026-04-21 07:10 31.07838 -102.14988 33192 ft 538 kts 104°
2026-04-21 07:10 31.06178 -102.06539 33193 ft 538 kts 104°
2026-04-21 07:11 31.04503 -101.98039 33195 ft 538 kts 104°
2026-04-21 07:11 31.02825 -101.89533 33198 ft 538 kts 104°
2026-04-21 07:12 31.01138 -101.81037 33196 ft 538 kts 104°
2026-04-21 07:12 30.99453 -101.72599 33197 ft 538 kts 105°
2026-04-21 07:13 30.97756 -101.64116 33199 ft 538 kts 104°
2026-04-21 07:13 30.96058 -101.55639 33201 ft 537 kts 105°
2026-04-21 07:14 30.94353 -101.47173 33215 ft 537 kts 105°
2026-04-21 07:14 30.92663 -101.38765 33233 ft 536 kts 105°
2026-04-21 07:15 30.90951 -101.30319 33253 ft 536 kts 105°
2026-04-21 07:15 30.89227 -101.21878 33268 ft 536 kts 105°
2026-04-21 07:16 30.87500 -101.13452 33269 ft 535 kts 105°
2026-04-21 07:16 30.85783 -101.05082 33261 ft 535 kts 105°
2026-04-21 07:17 30.84054 -100.96663 33249 ft 535 kts 105°
2026-04-21 07:17 30.82315 -100.88252 33240 ft 535 kts 105°
2026-04-21 07:18 30.80571 -100.79850 33256 ft 534 kts 105°
2026-04-21 07:18 30.78842 -100.71508 33273 ft 534 kts 105°
2026-04-21 07:19 30.77093 -100.63107 33280 ft 534 kts 105°
2026-04-21 07:19 30.75336 -100.54720 33279 ft 534 kts 105°
2026-04-21 07:20 30.73576 -100.46346 33269 ft 533 kts 105°
2026-04-21 07:20 30.71819 -100.37978 33249 ft 533 kts 105°
2026-04-21 07:21 30.70053 -100.29685 33231 ft 532 kts 105°
2026-04-21 07:21 30.68285 -100.21346 33211 ft 531 kts 105°
2026-04-21 07:22 30.66516 -100.13015 33212 ft 531 kts 105°
2026-04-21 07:22 30.64748 -100.04694 33223 ft 530 kts 105°
2026-04-21 07:23 30.62977 -99.96444 33237 ft 530 kts 106°
2026-04-21 07:23 30.61186 -99.88150 33252 ft 530 kts 106°
2026-04-21 07:24 30.59548 -99.79816 33258 ft 530 kts 99°
2026-04-21 07:24 30.58496 -99.71347 33262 ft 530 kts 99°
2026-04-21 07:25 30.57428 -99.62883 33255 ft 530 kts 99°
2026-04-21 07:25 30.56352 -99.54487 33250 ft 529 kts 99°
2026-04-21 07:26 30.55275 -99.46050 33241 ft 529 kts 99°
2026-04-21 07:26 30.54190 -99.37626 33230 ft 527 kts 99°
2026-04-21 07:27 30.53106 -99.29273 33226 ft 526 kts 99°
2026-04-21 07:27 30.52014 -99.20883 33229 ft 526 kts 99°
2026-04-21 07:28 30.50917 -99.12512 33231 ft 525 kts 99°
2026-04-21 07:28 30.49819 -99.04156 33240 ft 524 kts 99°
2026-04-21 07:29 30.48725 -98.95817 33240 ft 523 kts 99°
2026-04-21 07:29 30.47636 -98.87549 33242 ft 522 kts 99°
2026-04-21 07:30 30.46530 -98.79243 33250 ft 521 kts 99°
2026-04-21 07:30 30.45420 -98.70962 33254 ft 520 kts 99°
2026-04-21 07:31 30.44304 -98.62698 33259 ft 518 kts 99°
2026-04-21 07:31 30.43197 -98.54508 33265 ft 517 kts 99°
2026-04-21 07:32 30.42075 -98.46278 33276 ft 517 kts 100°
2026-04-21 07:32 30.40950 -98.38064 33275 ft 516 kts 100°
2026-04-21 07:33 30.39826 -98.29868 33273 ft 515 kts 100°
2026-04-21 07:33 30.38707 -98.21743 33269 ft 514 kts 100°
2026-04-21 07:34 30.37578 -98.13578 33283 ft 513 kts 100°
2026-04-21 07:34 30.36442 -98.05418 33293 ft 513 kts 100°
2026-04-21 07:35 30.35298 -97.97275 33296 ft 512 kts 100°
2026-04-21 07:35 30.34168 -97.89197 33294 ft 511 kts 100°
2026-04-21 07:36 30.33025 -97.81082 33273 ft 510 kts 100°
2026-04-21 07:36 30.31876 -97.72982 33271 ft 510 kts 100°
2026-04-21 07:37 30.30717 -97.64900 33278 ft 509 kts 101°
2026-04-21 07:37 30.29569 -97.56879 33272 ft 508 kts 101°
2026-04-21 07:38 30.28410 -97.48809 33273 ft 508 kts 101°
2026-04-21 07:38 30.27247 -97.40741 33269 ft 508 kts 101°
2026-04-21 07:39 30.26081 -97.32682 33259 ft 508 kts 101°
2026-04-21 07:39 30.24910 -97.24682 33275 ft 508 kts 101°
2026-04-21 07:40 30.23731 -97.16626 33295 ft 508 kts 101°
2026-04-21 07:40 30.22550 -97.08576 33322 ft 508 kts 101°
2026-04-21 07:41 30.21365 -97.00530 33329 ft 507 kts 101°
2026-04-21 07:41 30.20182 -96.92548 33336 ft 507 kts 101°
2026-04-21 07:42 30.18987 -96.84527 33317 ft 506 kts 101°
2026-04-21 07:42 30.17784 -96.76507 33272 ft 506 kts 101°
2026-04-21 07:43 30.16584 -96.68504 33224 ft 505 kts 101°
2026-04-21 07:43 30.15388 -96.60560 33173 ft 505 kts 101°
2026-04-21 07:44 30.14175 -96.52575 33148 ft 504 kts 102°
2026-04-21 07:44 30.12959 -96.44603 33134 ft 504 kts 102°
2026-04-21 07:45 30.11741 -96.36639 33125 ft 503 kts 102°
2026-04-21 07:45 30.10532 -96.28739 33115 ft 503 kts 102°
2026-04-21 07:46 30.09305 -96.20793 33098 ft 502 kts 102°
2026-04-21 07:46 30.08070 -96.12858 33115 ft 502 kts 102°
2026-04-21 07:47 30.06836 -96.04922 33143 ft 502 kts 102°
2026-04-21 07:47 30.05611 -95.97032 33173 ft 503 kts 102°
2026-04-21 07:48 30.04365 -95.89093 33204 ft 503 kts 102°
2026-04-21 07:48 30.03105 -95.81148 33222 ft 503 kts 102°
2026-04-21 07:49 30.01857 -95.73204 33276 ft 504 kts 102°
2026-04-21 07:49 30.00614 -95.65302 33306 ft 504 kts 102°
2026-04-21 07:50 29.99347 -95.57347 33313 ft 504 kts 102°
2026-04-21 07:50 29.98073 -95.49384 33315 ft 505 kts 102°
2026-04-21 07:51 29.96792 -95.41422 33306 ft 505 kts 102°
2026-04-21 07:51 29.95518 -95.33506 33302 ft 506 kts 102°
2026-04-21 07:52 29.94413 -95.25486 33302 ft 507 kts 100°
2026-04-21 07:52 29.93449 -95.17430 33289 ft 508 kts 99°
2026-04-21 07:53 29.92450 -95.09368 33275 ft 508 kts 100°
2026-04-21 07:53 29.91400 -95.01358 33269 ft 509 kts 100°
2026-04-21 07:54 29.90324 -94.93287 33261 ft 510 kts 100°
2026-04-21 07:54 29.89256 -94.85206 33263 ft 510 kts 100°
2026-04-21 07:55 29.88192 -94.77119 33266 ft 511 kts 100°
2026-04-21 07:55 29.87117 -94.69030 33263 ft 511 kts 100°
2026-04-21 07:56 29.86039 -94.60992 33267 ft 511 kts 100°
2026-04-21 07:56 29.84947 -94.52898 33267 ft 512 kts 100°
2026-04-21 07:57 29.83852 -94.44799 33263 ft 512 kts 100°
2026-04-21 07:57 29.82759 -94.36706 33266 ft 511 kts 100°
2026-04-21 07:58 29.81659 -94.28616 33273 ft 511 kts 100°
2026-04-21 07:58 29.80551 -94.20584 33274 ft 511 kts 100°
2026-04-21 07:59 29.79437 -94.12505 33269 ft 511 kts 100°
2026-04-21 07:59 29.78326 -94.04421 33265 ft 511 kts 100°
2026-04-21 08:00 29.77202 -93.96347 33271 ft 511 kts 100°
2026-04-21 08:00 29.76082 -93.88321 33267 ft 511 kts 100°
2026-04-21 08:01 29.74954 -93.80245 33265 ft 511 kts 100°
2026-04-21 08:02 29.73237 -93.68128 33278 ft 512 kts 101°
2026-04-21 08:02 29.72099 -93.60104 33280 ft 512 kts 101°
2026-04-21 08:03 29.70953 -93.52030 33285 ft 511 kts 101°
2026-04-21 08:03 29.69793 -93.43962 33286 ft 511 kts 101°
2026-04-21 08:04 29.68634 -93.35894 33288 ft 511 kts 101°
2026-04-21 08:04 29.67474 -93.27830 33284 ft 511 kts 101°
2026-04-21 08:05 29.66315 -93.19827 33281 ft 511 kts 101°
2026-04-21 08:05 29.65142 -93.11774 33278 ft 511 kts 101°
2026-04-21 08:06 29.63960 -93.03719 33285 ft 511 kts 101°
2026-04-21 08:06 29.62774 -92.95670 33285 ft 511 kts 101°
2026-04-21 08:07 29.61596 -92.87680 33283 ft 511 kts 101°
2026-04-21 08:07 29.60402 -92.79641 33283 ft 510 kts 101°
2026-04-21 08:08 29.59208 -92.71606 33278 ft 510 kts 101°
2026-04-21 08:08 29.58004 -92.63576 33276 ft 510 kts 101°
2026-04-21 08:09 29.56814 -92.55601 33279 ft 510 kts 101°
2026-04-21 08:09 29.55610 -92.47576 33280 ft 510 kts 101°
2026-04-21 08:10 29.54389 -92.39566 33277 ft 509 kts 101°
2026-04-21 08:10 29.53166 -92.31553 33279 ft 509 kts 101°
2026-04-21 08:11 29.51954 -92.23597 33276 ft 509 kts 101°
2026-04-21 08:11 29.50727 -92.15598 33286 ft 509 kts 101°
2026-04-21 08:12 29.49503 -92.07597 33286 ft 509 kts 101°
2026-04-21 08:12 29.48269 -91.99608 33280 ft 508 kts 101°
2026-04-21 08:13 29.47027 -91.91623 33289 ft 508 kts 101°
2026-04-21 08:13 29.45791 -91.83695 33288 ft 508 kts 101°
2026-04-21 08:14 29.44541 -91.75718 33292 ft 508 kts 101°
2026-04-21 08:14 29.43283 -91.67747 33292 ft 508 kts 101°
2026-04-21 08:15 29.42030 -91.59837 33298 ft 507 kts 101°
2026-04-21 08:15 29.40774 -91.51874 33298 ft 507 kts 101°
2026-04-21 08:16 29.39515 -91.43913 33301 ft 507 kts 101°
2026-04-21 08:16 29.38238 -91.35966 33295 ft 507 kts 101°
2026-04-21 08:17 29.36966 -91.28064 33295 ft 507 kts 101°
2026-04-21 08:17 29.35694 -91.20120 33296 ft 507 kts 101°
2026-04-21 08:18 29.34410 -91.12174 33292 ft 507 kts 101°
2026-04-21 08:18 29.33120 -91.04219 33284 ft 508 kts 101°
2026-04-21 08:19 29.31831 -90.96313 33281 ft 508 kts 101°
2026-04-21 08:19 29.30528 -90.88349 33282 ft 509 kts 101°
2026-04-21 08:20 29.29220 -90.80375 33281 ft 510 kts 101°
2026-04-21 08:20 29.27901 -90.72394 33287 ft 510 kts 101°
2026-04-21 08:21 29.26584 -90.64404 33290 ft 510 kts 101°
2026-04-21 08:21 29.25268 -90.56469 33294 ft 511 kts 101°
2026-04-21 08:22 29.23936 -90.48478 33299 ft 511 kts 101°
2026-04-21 08:22 29.22600 -90.40493 33297 ft 511 kts 101°
2026-04-21 08:23 29.21258 -90.32508 33299 ft 511 kts 101°
2026-04-21 08:23 29.19925 -90.24573 33293 ft 511 kts 101°
2026-04-21 08:24 29.18570 -90.16588 33296 ft 511 kts 102°
2026-04-21 08:24 29.17196 -90.08601 33285 ft 511 kts 102°
2026-04-21 08:25 29.15638 -90.00659 33288 ft 511 kts 104°
2026-04-21 08:25 29.13966 -89.92806 33289 ft 512 kts 104°
2026-04-21 08:26 29.12302 -89.84893 33288 ft 512 kts 104°
2026-04-21 08:26 29.10683 -89.76971 33290 ft 512 kts 103°
2026-04-21 08:27 29.09069 -89.69055 33287 ft 512 kts 104°
2026-04-21 08:27 29.07438 -89.61125 33291 ft 512 kts 104°
2026-04-21 08:28 29.05809 -89.53265 33287 ft 512 kts 104°
2026-04-21 08:28 29.04164 -89.45352 33294 ft 512 kts 104°
2026-04-21 08:29 29.02519 -89.37443 33287 ft 512 kts 104°
2026-04-21 08:29 29.00863 -89.29539 33286 ft 511 kts 104°
2026-04-21 08:30 28.99216 -89.21695 33287 ft 511 kts 104°
2026-04-21 08:30 28.97552 -89.13796 33290 ft 511 kts 104°
2026-04-21 08:31 28.95892 -89.05905 33290 ft 511 kts 104°
2026-04-21 08:31 28.94221 -88.98016 33286 ft 511 kts 104°
2026-04-21 08:32 28.92552 -88.90185 33285 ft 511 kts 104°
2026-04-21 08:32 28.90872 -88.82303 33289 ft 511 kts 104°
2026-04-21 08:33 28.89195 -88.74426 33283 ft 511 kts 104°
2026-04-21 08:33 28.87439 -88.66571 33284 ft 511 kts 106°
2026-04-21 08:34 28.85330 -88.58894 33289 ft 510 kts 109°
2026-04-21 08:34 28.83067 -88.51217 33289 ft 510 kts 109°
2026-04-21 08:35 28.80869 -88.43522 33286 ft 510 kts 108°
2026-04-21 08:35 28.78743 -88.35802 33278 ft 510 kts 108°
2026-04-21 08:36 28.76628 -88.28131 33278 ft 510 kts 108°
2026-04-21 08:36 28.74476 -88.20428 33282 ft 511 kts 108°
2026-04-21 08:37 28.72311 -88.12720 33276 ft 511 kts 108°
2026-04-21 08:37 28.70138 -88.05020 33277 ft 511 kts 108°
2026-04-21 08:38 28.67979 -87.97374 33282 ft 511 kts 108°
2026-04-21 08:38 28.65803 -87.89677 33276 ft 511 kts 108°
2026-04-21 08:39 28.63626 -87.81983 33275 ft 511 kts 108°
2026-04-21 08:39 28.61446 -87.74288 33282 ft 511 kts 108°
2026-04-21 08:40 28.59271 -87.66647 33275 ft 511 kts 108°
2026-04-21 08:40 28.57067 -87.58965 33275 ft 511 kts 108°
2026-04-21 08:41 28.54865 -87.51282 33273 ft 511 kts 108°
2026-04-21 08:41 28.52665 -87.43596 33277 ft 511 kts 108°
2026-04-21 08:42 28.50461 -87.35910 33274 ft 511 kts 108°
2026-04-21 08:42 28.48267 -87.28278 33274 ft 512 kts 108°
2026-04-21 08:43 28.46049 -87.20594 33277 ft 511 kts 108°
2026-04-21 08:43 28.43819 -87.12923 33274 ft 511 kts 108°
2026-04-21 08:44 28.41610 -87.05308 33271 ft 511 kts 108°
2026-04-21 08:44 28.39384 -86.97641 33268 ft 511 kts 108°
2026-04-21 08:45 28.37149 -86.89981 33266 ft 511 kts 108°
2026-04-21 08:45 28.34915 -86.82317 33261 ft 511 kts 108°
2026-04-21 08:46 28.32667 -86.74656 33270 ft 511 kts 108°
2026-04-21 08:46 28.30435 -86.67050 33253 ft 512 kts 108°
2026-04-21 08:47 28.28206 -86.59383 33264 ft 512 kts 108°
2026-04-21 08:47 28.25969 -86.51721 33263 ft 512 kts 108°
2026-04-21 08:48 28.23725 -86.44056 33267 ft 512 kts 108°
2026-04-21 08:48 28.21485 -86.36440 33266 ft 513 kts 109°
2026-04-21 08:49 28.19222 -86.28778 33268 ft 513 kts 109°
2026-04-21 08:49 28.16960 -86.21106 33272 ft 513 kts 109°
2026-04-21 08:50 28.14693 -86.13436 33264 ft 513 kts 109°
2026-04-21 08:50 28.12444 -86.05816 33269 ft 513 kts 109°
2026-04-21 08:51 28.10167 -85.98151 33265 ft 514 kts 109°
2026-04-21 08:51 28.07878 -85.90491 33267 ft 514 kts 109°
2026-04-21 08:52 28.05604 -85.82877 33267 ft 514 kts 109°
2026-04-21 08:52 28.03311 -85.75223 33268 ft 514 kts 109°
2026-04-21 08:53 28.01014 -85.67571 33263 ft 513 kts 109°
2026-04-21 08:53 27.98718 -85.59922 33261 ft 513 kts 109°
2026-04-21 08:54 27.96421 -85.52277 33261 ft 513 kts 109°
2026-04-21 08:54 27.94134 -85.44688 33262 ft 513 kts 109°
2026-04-21 08:55 27.91829 -85.37060 33258 ft 513 kts 109°
2026-04-21 08:55 27.89514 -85.29436 33256 ft 512 kts 109°
2026-04-21 08:56 27.87718 -85.21659 33257 ft 512 kts 100°
2026-04-21 08:56 27.86409 -85.13753 33263 ft 512 kts 100°
2026-04-21 08:57 27.85082 -85.05905 33263 ft 512 kts 100°
2026-04-21 08:57 27.83737 -84.98009 33263 ft 512 kts 100°
2026-04-21 08:58 27.82395 -84.90110 33264 ft 512 kts 100°
2026-04-21 08:58 27.81382 -84.82166 33259 ft 510 kts 89°
2026-04-21 08:59 27.81686 -84.74241 33265 ft 509 kts 84°
2026-04-21 08:59 27.82066 -84.66259 33262 ft 509 kts 85°
2026-04-21 09:00 27.82442 -84.58268 33272 ft 509 kts 85°
2026-04-21 09:00 27.82810 -84.50280 33272 ft 510 kts 85°
2026-04-21 09:01 27.83173 -84.42339 33269 ft 510 kts 85°
2026-04-21 09:01 27.83553 -84.34339 33276 ft 510 kts 85°
2026-04-21 09:02 27.83915 -84.26339 33285 ft 510 kts 85°
2026-04-21 09:02 27.84276 -84.18334 33281 ft 510 kts 85°
2026-04-21 09:03 27.84779 -84.06388 33284 ft 510 kts 85°
2026-04-21 09:03 27.85130 -83.98390 33285 ft 509 kts 85°
2026-04-21 09:04 27.85473 -83.90396 33294 ft 509 kts 85°
2026-04-21 09:04 27.85805 -83.82408 33296 ft 509 kts 85°
2026-04-21 09:05 27.86126 -83.74486 33286 ft 508 kts 85°
2026-04-21 09:05 27.86450 -83.66513 33285 ft 507 kts 85°
2026-04-21 09:06 27.86777 -83.58536 33261 ft 509 kts 85°
2026-04-21 09:06 27.87105 -83.50538 33258 ft 510 kts 85°
2026-04-21 09:07 27.87421 -83.42575 33265 ft 511 kts 85°
2026-04-21 09:07 27.87725 -83.34550 33275 ft 511 kts 85°
2026-04-21 09:08 27.88029 -83.26517 33280 ft 511 kts 85°
2026-04-21 09:08 27.88166 -83.18480 33278 ft 512 kts 88°
2026-04-21 09:09 27.88112 -83.10482 33286 ft 512 kts 89°
2026-04-21 09:09 27.88052 -83.02436 33282 ft 512 kts 88°
2026-04-21 09:10 27.88053 -82.94399 33286 ft 512 kts 88°
2026-04-21 09:10 27.88078 -82.86355 33288 ft 512 kts 88°
2026-04-21 09:11 27.88077 -82.78363 33296 ft 512 kts 88°
2026-04-21 09:11 27.88060 -82.70316 33298 ft 512 kts 88°
2026-04-21 09:12 27.88021 -82.62278 33288 ft 512 kts 89°
2026-04-21 09:12 27.87897 -82.54241 33286 ft 511 kts 89°
2026-04-21 09:13 27.87746 -82.46263 33277 ft 511 kts 89°
2026-04-21 09:13 27.87879 -82.42270 33266 ft 507 kts 78°
2026-04-21 09:13 27.88749 -82.38447 33264 ft 499 kts 64°
2026-04-21 09:14 27.91584 -82.31324 33283 ft 497 kts 61°
2026-04-21 09:14 27.94454 -82.24205 33279 ft 498 kts 61°